Content
SEND FEEDBACK

Daily
Averages
Monthly
Summary
Netherlands

AMSTERDAM, NETHERLANDS


Home > Europe > Netherlands
Elevation: 7 feet     Latitude: 52 18N     Longitude: 004 46E

WEATHER
 
SELECT A DAY
Number of Records: 301,919;   Date Range: 7/1/96 - 7/20/14
 
SHARE

PRINT THIS DATA

[ ← Previous Day ]
WEATHER ALMANAC - NOVEMBER 16, 2013
[ Next Day → ]
[ °C ]   °F
Weather ElementAverageHighLow
Temperature41.4 °F47 °F (1:00 pm)35.6 °F (4:25 am)
Dewpoint40.9 °F46.4 °F (1:25 pm)35.6 °F (4:25 am)
Humidity97.7 %100 % (12:55 am)92 % (1:00 pm)
Barometer30.42 in30.49 in (1:00 am)30.33 in (10:55 pm)
Wind Speed6.3 mph11.2 mph (1:00 pm)
Weather ElementAverage
Visibility2.1 mi
Wind DirectionS (181.6 °)

Weather ElementTotal
Precipitation---
Heating Degree Days23.7 (Base 65)
Averaged from 55 records on November 16, 2013
WEATHER CONDITIONS BREAKOUT
WIND DIRECTION BREAKOUT
WEATHER BY HOUR - NOVEMBER 16, 2013
[ °C ]   °F
Local TimeTemperatureDewpointHumidityBarometerVisibilityWind DirectionWind SpeedGust SpeedPrecipitationEventsConditions
12:55 AM37.4 °F37.4 °F100 %30.48 in6.2 miSE (130°)1.2 mphFogShallow Fog
1:00 AM37.0 °F37.0 °F100 %30.49 in0.0 miSE (130°)2.2 mphFogFog
1:25 AM37.4 °F37.4 °F100 %30.48 in6.2 miSSW (200°)2.3 mphFogShallow Fog
1:55 AM37.4 °F37.4 °F100 %30.48 in6.2 miWSW (250°)2.3 mphFogShallow Fog
2:25 AM39.2 °F37.4 °F93 %30.45 in6.2 miWest (280°)1.2 mphFogShallow Fog
2:55 AM37.4 °F37.4 °F100 %30.48 in6.2 miESE (120°)1.2 mphFogShallow Fog
3:25 AM37.4 °F37.4 °F100 %30.45 in5.0 miSouth (170°)2.3 mphFogFog
3:55 AM37.4 °F37.4 °F100 %30.45 in5.0 miSSE (160°)2.3 mphFogShallow Fog
4:00 AM37.0 °F37.0 °F98 %30.47 in6.0 miSSE (160°)2.2 mphMist
4:25 AM35.6 °F35.6 °F100 %30.45 in5.0 miSouth (170°)4.6 mphFogShallow Fog
4:55 AM35.6 °F35.6 °F100 %30.45 in3.7 miSouth (190°)4.6 mphFogPatches of Fog
5:25 AM35.6 °F35.6 °F100 %30.45 in2.2 miSSE (160°)3.5 mphScattered Clouds
5:55 AM35.6 °F35.6 °F100 %30.45 in0.3 miSSE (160°)4.6 mphFogFog
6:25 AM35.6 °F35.6 °F100 %30.45 in0.2 miSSE (150°)3.5 mphFogFog
6:55 AM35.6 °F35.6 °F100 %30.45 in0.2 miSSE (150°)3.5 mphFogFog
7:00 AM36.0 °F36.0 °F99 %30.47 in0.0 miSSE (150°)4.5 mphFogFog
7:25 AM35.6 °F35.6 °F100 %30.45 in0.2 miSSE (160°)5.8 mphFogFog
7:55 AM35.6 °F35.6 °F100 %30.45 in0.2 miSouth (180°)4.6 mphFogFog
8:25 AM35.6 °F35.6 °F100 %30.45 in0.2 miSouth (190°)6.9 mphFogFog
8:55 AM37.4 °F37.4 °F100 %30.48 in0.2 miSouth (180°)5.8 mphFogFog
9:25 AM37.4 °F37.4 °F100 %30.48 in0.2 miSouth (170°)6.9 mphFogFog
9:55 AM39.2 °F39.2 °F100 %30.48 in0.5 miSouth (190°)5.8 mphFogPatches of Fog
10:00 AM39.0 °F39.0 °F98 %30.49 in0.0 miSouth (180°)6.7 mphFogFog
10:25 AM39.2 °F39.2 °F100 %30.48 inSouth (170°)5.8 mphMostly Cloudy
10:55 AM41.0 °F41.0 °F100 %30.45 in2.2 miSouth (180°)8.1 mphMostly Cloudy
11:25 AM42.8 °F42.8 °F100 %30.45 in2.2 miSouth (180°)8.1 mphOvercast
11:55 AM44.6 °F44.6 °F100 %30.45 in2.2 miSouth (180°)9.2 mphMostly Cloudy
12:25 PM46.4 °F44.6 °F93 %30.45 in2.2 miSouth (190°)9.2 mphMostly Cloudy
12:55 PM46.4 °F44.6 °F93 %30.42 in2.5 miSouth (180°)10.4 mphMostly Cloudy
1:00 PM47.0 °F46.0 °F92 %30.45 in2.0 miSouth (190°)11.2 mphMist
1:25 PM46.4 °F46.4 °F100 %30.42 in2.5 miSSW (200°)10.4 mphMostly Cloudy
1:55 PM46.4 °F44.6 °F93 %30.42 inSSW (200°)10.4 mphMostly Cloudy
2:25 PM46.4 °F44.6 °F93 %30.42 in1.9 miSSW (200°)10.4 mphMostly Cloudy
2:55 PM46.4 °F44.6 °F93 %30.39 in2.2 miSSW (200°)10.4 mphMostly Cloudy
3:25 PM46.4 °F44.6 °F93 %30.39 in2.2 miSSW (200°)9.2 mphMostly Cloudy
3:55 PM44.6 °F44.6 °F100 %30.39 in2.2 miSSW (200°)9.2 mphMostly Cloudy
4:00 PM45.0 °F44.0 °F94 %30.41 in2.0 miSSW (200°)8.9 mphMist
4:25 PM44.6 °F42.8 °F93 %30.39 inSSW (200°)10.4 mphMostly Cloudy
4:55 PM44.6 °F44.6 °F100 %30.39 in1.7 miSSW (200°)8.1 mphMostly Cloudy
5:25 PM44.6 °F42.8 °F93 %30.39 in1.6 miSouth (190°)9.2 mphMostly Cloudy
5:55 PM44.6 °F42.8 °F93 %30.39 in1.6 miSouth (190°)8.1 mphMostly Cloudy
6:25 PM44.6 °F42.8 °F93 %30.39 in1.6 miSSW (200°)6.9 mphMostly Cloudy
6:55 PM44.6 °F42.8 °F93 %30.39 in1.5 miSouth (190°)6.9 mphMostly Cloudy
7:00 PM44.0 °F44.0 °F97 %30.39 in1.0 miSouth (190°)6.7 mphMist
7:25 PM44.6 °F44.6 °F100 %30.36 in1.5 miSSW (200°)8.1 mphMostly Cloudy
7:55 PM44.6 °F44.6 °F100 %30.36 in1.4 miSouth (190°)5.8 mphMostly Cloudy
8:25 PM44.6 °F44.6 °F100 %30.36 in1.5 miSouth (190°)6.9 mphMostly Cloudy
8:55 PM44.6 °F44.6 °F100 %30.36 in1.6 miSouth (190°)6.9 mphMostly Cloudy
9:25 PM44.6 °F44.6 °F100 %30.36 in1.6 miSouth (170°)5.8 mphMostly Cloudy
9:55 PM44.6 °F44.6 °F100 %30.36 in1.6 miSouth (170°)5.8 mphMostly Cloudy
10:00 PM44.0 °F44.0 °F99 %30.36 in1.0 miSouth (190°)4.5 mphMist
10:25 PM44.6 °F42.8 °F93 %30.36 in1.5 miSSE (160°)5.8 mphMostly Cloudy
10:55 PM44.6 °F42.8 °F93 %30.33 in1.4 miSouth (170°)8.1 mphMostly Cloudy
11:25 PM44.6 °F42.8 °F93 %30.33 in1.2 miSouth (170°)6.9 mphMostly Cloudy
11:55 PM42.8 °F42.8 °F100 %30.33 in1.2 miSouth (180°)5.8 mphOvercast
Hourly data recorded from EHAM, located miles away from Amsterdam, Netherlands







STORIES FROM OUR PARTNERS